Time,TemperatureF,DewpointF,PressureIn,WindDirection,WindDirectionDegrees,WindSpeedMPH,WindSpeedGustMPH,Humidity,HourlyPrecipIn,Conditions,Clouds,dailyrainin,SoftwareType,DateUTC
2013-08-28 00:10:00,65.5,64.9,29.95,North,0,0.0,-999.0,98,-99.99,,,0.00,Acu-Link.com,2013-08-28 04:10:00,
2013-08-28 00:26:00,64.9,64.4,29.96,North,0,0.0,-999.0,98,-99.99,,,0.00,Acu-Link.com,2013-08-28 04:26:00,
2013-08-28 00:41:00,64.9,64.4,29.96,North,0,0.0,-999.0,98,-99.99,,,0.00,Acu-Link.com,2013-08-28 04:41:00,
2013-08-28 00:56:00,64.8,64.2,29.95,North,0,0.0,-999.0,98,-99.99,,,0.00,Acu-Link.com,2013-08-28 04:56:00,
2013-08-28 01:11:00,64.9,64.4,29.95,North,0,0.0,-999.0,98,-99.99,,,0.00,Acu-Link.com,2013-08-28 05:11:00,
2013-08-28 01:26:00,65.3,64.7,29.96,North,0,0.0,-999.0,98,-99.99,,,0.00,Acu-Link.com,2013-08-28 05:26:00,
2013-08-28 01:42:00,65.5,64.9,29.95,North,0,0.0,-999.0,98,-99.99,,,0.00,Acu-Link.com,2013-08-28 05:42:00,
2013-08-28 01:57:00,65.8,65.3,29.94,North,0,0.0,-999.0,98,-99.99,,,0.00,Acu-Link.com,2013-08-28 05:57:00,
2013-08-28 02:12:00,65.1,64.5,29.95,North,0,0.0,-999.0,98,-99.99,,,0.00,Acu-Link.com,2013-08-28 06:12:00,
2013-08-28 02:27:00,65.3,64.7,29.96,North,0,0.0,-999.0,98,-99.99,,,0.00,Acu-Link.com,2013-08-28 06:27:00,
2013-08-28 02:43:00,64.9,64.4,29.95,North,0,0.0,-999.0,98,-99.99,,,0.00,Acu-Link.com,2013-08-28 06:43:00,
2013-08-28 02:58:00,64.6,64.0,29.95,North,0,0.0,-999.0,98,-99.99,,,0.00,Acu-Link.com,2013-08-28 06:58:00,
2013-08-28 03:13:00,64.4,63.8,29.95,North,0,0.0,-999.0,98,-99.99,,,0.00,Acu-Link.com,2013-08-28 07:13:00,
2013-08-28 03:28:00,64.4,63.8,29.94,North,0,0.0,-999.0,98,-99.99,,,0.00,Acu-Link.com,2013-08-28 07:28:00,
2013-08-28 03:43:00,64.4,63.8,29.94,North,0,0.0,-999.0,98,-99.99,,,0.00,Acu-Link.com,2013-08-28 07:43:00,
2013-08-28 03:59:00,64.4,63.8,29.95,North,0,0.0,-999.0,98,-99.99,,,0.00,Acu-Link.com,2013-08-28 07:59:00,
2013-08-28 04:14:00,64.4,63.8,29.94,North,0,0.0,-999.0,98,-99.99,,,0.00,Acu-Link.com,2013-08-28 08:14:00,
2013-08-28 04:29:00,64.4,63.8,29.94,North,0,0.0,-999.0,98,-99.99,,,0.00,Acu-Link.com,2013-08-28 08:29:00,
2013-08-28 04:44:00,64.6,64.0,29.95,North,0,0.0,-999.0,98,-99.99,,,0.00,Acu-Link.com,2013-08-28 08:44:00,
2013-08-28 04:59:00,64.6,64.0,29.95,North,0,0.0,-999.0,98,-99.99,,,0.00,Acu-Link.com,2013-08-28 08:59:00,
2013-08-28 05:14:00,65.1,64.5,29.95,North,0,0.0,-999.0,98,-99.99,,,0.00,Acu-Link.com,2013-08-28 09:14:00,
2013-08-28 05:29:00,65.1,64.5,29.95,North,0,0.0,-999.0,98,-99.99,,,0.00,Acu-Link.com,2013-08-28 09:29:00,
2013-08-28 05:45:00,64.9,64.4,29.95,North,0,0.0,-999.0,98,-99.99,,,0.00,Acu-Link.com,2013-08-28 09:45:00,
2013-08-28 06:00:00,64.9,64.4,29.95,North,0,0.0,-999.0,98,-99.99,,,0.00,Acu-Link.com,2013-08-28 10:00:00,
2013-08-28 06:15:00,64.9,64.4,29.96,North,0,0.0,-999.0,98,-99.99,,,0.00,Acu-Link.com,2013-08-28 10:15:00,
2013-08-28 06:30:00,64.8,64.2,29.96,North,0,0.0,-999.0,98,-99.99,,,0.00,Acu-Link.com,2013-08-28 10:30:00,
2013-08-28 06:45:00,64.6,64.0,29.96,North,0,0.0,-999.0,98,-99.99,,,0.00,Acu-Link.com,2013-08-28 10:45:00,
2013-08-28 07:01:00,64.6,64.0,29.97,North,0,0.0,-999.0,98,-99.99,,,0.00,Acu-Link.com,2013-08-28 11:01:00,
2013-08-28 07:16:00,64.8,64.2,29.97,North,0,0.0,-999.0,98,-99.99,,,0.00,Acu-Link.com,2013-08-28 11:16:00,
2013-08-28 07:31:00,64.9,64.4,29.97,North,0,0.0,-999.0,98,-99.99,,,0.00,Acu-Link.com,2013-08-28 11:31:00,
2013-08-28 07:46:00,65.3,64.7,29.97,SSW,202,0.0,-999.0,98,-99.99,,,0.00,Acu-Link.com,2013-08-28 11:46:00,
2013-08-28 08:02:00,65.7,65.1,29.97,SW,225,0.0,-999.0,98,-99.99,,,0.00,Acu-Link.com,2013-08-28 12:02:00,
2013-08-28 08:17:00,66.4,65.8,29.97,SW,225,0.0,-999.0,98,-99.99,,,0.00,Acu-Link.com,2013-08-28 12:17:00,
2013-08-28 08:32:00,66.9,66.3,29.97,SSW,202,0.0,-999.0,98,-99.99,,,0.00,Acu-Link.com,2013-08-28 12:32:00,
2013-08-28 08:47:00,67.5,66.9,29.97,SW,225,0.0,-999.0,98,-99.99,,,0.00,Acu-Link.com,2013-08-28 12:47:00,
2013-08-28 09:02:00,68.7,68.1,29.97,SSW,202,0.0,-999.0,98,-99.99,,,0.00,Acu-Link.com,2013-08-28 13:02:00,
2013-08-28 09:18:00,70.0,69.4,29.98,WSW,247,0.0,-999.0,98,-99.99,,,0.00,Acu-Link.com,2013-08-28 13:18:00,
2013-08-28 09:33:00,71.1,70.5,29.98,West,270,0.0,-999.0,98,-99.99,,,0.00,Acu-Link.com,2013-08-28 13:33:00,
2013-08-28 09:48:00,72.3,71.7,29.98,SW,225,0.0,-999.0,98,-99.99,,,0.00,Acu-Link.com,2013-08-28 13:48:00,
2013-08-28 10:03:00,73.2,71.7,29.98,SW,225,2.7,-999.0,95,-99.99,,,0.00,Acu-Link.com,2013-08-28 14:03:00,
2013-08-28 10:19:00,74.3,71.5,29.98,West,270,1.1,-999.0,91,-99.99,,,0.00,Acu-Link.com,2013-08-28 14:19:00,
2013-08-28 10:34:00,75.6,70.4,29.98,SSW,202,2.7,-999.0,84,-99.99,,,0.00,Acu-Link.com,2013-08-28 14:34:00,
2013-08-28 10:49:00,76.8,68.3,29.98,SSW,202,2.7,-999.0,75,-99.99,,,0.00,Acu-Link.com,2013-08-28 14:49:00,
2013-08-28 11:04:00,77.5,68.6,29.98,NNE,22,0.0,-999.0,74,-99.99,,,0.00,Acu-Link.com,2013-08-28 15:04:00,
2013-08-28 11:19:00,78.3,68.5,29.98,East,90,0.0,-999.0,72,-99.99,,,0.00,Acu-Link.com,2013-08-28 15:19:00,
2013-08-28 11:35:00,78.8,68.6,29.98,ENE,67,0.0,-999.0,71,-99.99,,,0.00,Acu-Link.com,2013-08-28 15:35:00,
2013-08-28 11:50:00,77.5,69.0,29.98,NNW,337,0.0,-999.0,75,-99.99,,,0.00,Acu-Link.com,2013-08-28 15:50:00,
2013-08-28 12:05:00,77.5,70.1,29.98,WSW,247,0.0,-999.0,78,-99.99,,,0.00,Acu-Link.com,2013-08-28 16:05:00,
2013-08-28 12:20:00,78.4,70.2,29.99,WSW,247,0.0,-999.0,76,-99.99,,,0.00,Acu-Link.com,2013-08-28 16:20:00,
2013-08-28 12:36:00,80.6,71.1,29.99,SSW,202,0.0,-999.0,73,-99.99,,,0.00,Acu-Link.com,2013-08-28 16:36:00,
2013-08-28 12:51:00,81.1,70.0,29.98,South,180,0.0,-999.0,69,-99.99,,,0.00,Acu-Link.com,2013-08-28 16:51:00,
2013-08-28 13:06:00,80.2,70.4,29.98,SSW,202,0.0,-999.0,72,-99.99,,,0.00,Acu-Link.com,2013-08-28 17:06:00,
2013-08-28 13:21:00,81.7,70.5,29.99,ESE,112,3.1,-999.0,69,-99.99,,,0.00,Acu-Link.com,2013-08-28 17:21:00,
2013-08-28 13:36:00,83.5,70.9,29.99,SW,225,2.7,-999.0,66,-99.99,,,0.00,Acu-Link.com,2013-08-28 17:36:00,
2013-08-28 13:51:00,83.3,69.4,29.99,SW,225,0.0,-999.0,63,-99.99,,,0.00,Acu-Link.com,2013-08-28 17:51:00,
2013-08-28 14:07:00,81.7,69.6,29.98,WSW,247,0.0,-999.0,67,-99.99,,,0.00,Acu-Link.com,2013-08-28 18:07:00,
2013-08-28 14:22:00,78.4,72.1,29.99,South,180,0.0,-999.0,81,-99.99,,,0.01,Acu-Link.com,2013-08-28 18:22:00,
2013-08-28 14:37:00,74.5,70.0,29.99,WNW,292,0.0,-999.0,86,-99.99,,,0.10,Acu-Link.com,2013-08-28 18:37:00,
2013-08-28 14:52:00,70.9,69.4,29.99,NNW,337,0.0,-999.0,95,-99.99,,,0.26,Acu-Link.com,2013-08-28 18:52:00,
2013-08-28 15:08:00,68.5,68.0,29.98,NW,315,0.0,-999.0,98,-99.99,,,0.28,Acu-Link.com,2013-08-28 19:08:00,
2013-08-28 15:23:00,69.6,69.0,29.98,NE,45,0.0,-999.0,98,-99.99,,,0.28,Acu-Link.com,2013-08-28 19:23:00,
2013-08-28 15:38:00,70.0,69.4,29.98,WNW,292,0.0,-999.0,98,-99.99,,,0.28,Acu-Link.com,2013-08-28 19:38:00,
2013-08-28 15:53:00,70.9,70.3,29.97,WNW,292,0.0,-999.0,98,-99.99,,,0.28,Acu-Link.com,2013-08-28 19:53:00,
2013-08-28 16:08:00,72.0,71.4,29.97,SW,225,0.0,-999.0,98,-99.99,,,0.28,Acu-Link.com,2013-08-28 20:08:00,
2013-08-28 16:24:00,72.1,71.5,29.98,NW,315,0.0,-999.0,98,-99.99,,,0.28,Acu-Link.com,2013-08-28 20:24:00,
2013-08-28 16:39:00,71.2,70.6,29.98,NW,315,0.0,-999.0,98,-99.99,,,0.28,Acu-Link.com,2013-08-28 20:39:00,
2013-08-28 16:54:00,70.9,70.3,29.98,West,270,0.0,-999.0,98,-99.99,,,0.28,Acu-Link.com,2013-08-28 20:54:00,
2013-08-28 17:09:00,71.2,70.6,29.98,NE,45,0.0,-999.0,98,-99.99,,,0.28,Acu-Link.com,2013-08-28 21:09:00,
2013-08-28 17:25:00,71.2,70.6,29.98,NNW,337,0.0,-999.0,98,-99.99,,,0.28,Acu-Link.com,2013-08-28 21:25:00,
2013-08-28 17:40:00,71.8,71.2,29.99,NE,45,0.0,-999.0,98,-99.99,,,0.29,Acu-Link.com,2013-08-28 21:40:00,
2013-08-28 17:55:00,71.6,71.0,29.99,WNW,292,0.0,-999.0,98,-99.99,,,0.29,Acu-Link.com,2013-08-28 21:55:00,
2013-08-28 18:10:00,71.8,71.2,29.99,WNW,292,0.0,-999.0,98,-99.99,,,0.29,Acu-Link.com,2013-08-28 22:10:00,
2013-08-28 18:25:00,71.2,70.6,29.99,WNW,292,0.0,-999.0,98,-99.99,,,0.29,Acu-Link.com,2013-08-28 22:25:00,
2013-08-28 18:41:00,70.9,70.3,30.00,WNW,292,0.0,-999.0,98,-99.99,,,0.29,Acu-Link.com,2013-08-28 22:41:00,
2013-08-28 18:56:00,70.9,70.3,30.00,WNW,292,0.0,-999.0,98,-99.99,,,0.29,Acu-Link.com,2013-08-28 22:56:00,
2013-08-28 19:11:00,70.9,70.3,30.00,WNW,292,0.0,-999.0,98,-99.99,,,0.29,Acu-Link.com,2013-08-28 23:11:00,
2013-08-28 19:26:00,70.7,70.1,30.01,WNW,292,0.0,-999.0,98,-99.99,,,0.29,Acu-Link.com,2013-08-28 23:26:00,
2013-08-28 19:42:00,70.7,70.1,30.01,WNW,292,0.0,-999.0,98,-99.99,,,0.29,Acu-Link.com,2013-08-28 23:42:00,
2013-08-28 19:57:00,70.5,69.9,30.01,WNW,292,0.0,-999.0,98,-99.99,,,0.29,Acu-Link.com,2013-08-28 23:57:00,
2013-08-28 20:12:00,70.3,69.7,30.02,WNW,292,0.0,-999.0,98,-99.99,,,0.29,Acu-Link.com,2013-08-29 00:12:00,
2013-08-28 20:27:00,70.2,69.6,30.03,East,90,0.0,-999.0,98,-99.99,,,0.29,Acu-Link.com,2013-08-29 00:27:00,
2013-08-28 20:42:00,70.2,69.6,30.04,ENE,67,0.0,-999.0,98,-99.99,,,0.29,Acu-Link.com,2013-08-29 00:42:00,
2013-08-28 20:58:00,69.4,68.8,30.04,East,90,2.7,-999.0,98,-99.99,,,0.29,Acu-Link.com,2013-08-29 00:58:00,
2013-08-28 21:13:00,68.4,67.8,30.05,East,90,1.6,-999.0,98,-99.99,,,0.29,Acu-Link.com,2013-08-29 01:13:00,
2013-08-28 21:28:00,67.6,67.1,30.06,ENE,67,2.2,-999.0,98,-99.99,,,0.29,Acu-Link.com,2013-08-29 01:28:00,
2013-08-28 21:43:00,67.5,66.9,30.07,East,90,0.0,-999.0,98,-99.99,,,0.29,Acu-Link.com,2013-08-29 01:43:00,
2013-08-28 21:59:00,66.2,65.6,30.08,ENE,67,1.6,-999.0,98,-99.99,,,0.29,Acu-Link.com,2013-08-29 01:59:00,
2013-08-28 22:14:00,64.8,62.7,30.08,ENE,67,1.6,-999.0,93,-99.99,,,0.29,Acu-Link.com,2013-08-29 02:14:00,
2013-08-28 22:29:00,64.0,63.5,30.09,East,90,2.2,-999.0,98,-99.99,,,0.29,Acu-Link.com,2013-08-29 02:29:00,
2013-08-28 22:44:00,63.5,62.9,30.09,ENE,67,0.0,-999.0,98,-99.99,,,0.29,Acu-Link.com,2013-08-29 02:44:00,
2013-08-28 22:59:00,63.1,62.6,30.09,NE,45,2.7,-999.0,98,-99.99,,,0.29,Acu-Link.com,2013-08-29 02:59:00,
2013-08-28 23:15:00,62.8,62.2,30.09,East,90,1.6,-999.0,98,-99.99,,,0.29,Acu-Link.com,2013-08-29 03:15:00,
2013-08-28 23:30:00,62.6,62.0,30.10,ENE,67,3.1,-999.0,98,-99.99,,,0.29,Acu-Link.com,2013-08-29 03:30:00,
2013-08-28 23:45:00,62.2,61.7,30.08,East,90,0.0,-999.0,98,-99.99,,,0.29,Acu-Link.com,2013-08-29 03:45:00,